This demonstration page uses our WeatherBlox Daily Observations layout. Learn more.

Left ArrowRight Arrow

44.8408, -93.29828

Hourly Observations for September 19, 2021

Temp ( °F °C ) Dew Point ( °F °C ) Humidity (%) Winds ( mph kmh ) Pressure ( in mb ) Visibility ( mi km ) Precip ( " mm )
12:53 am 00:53 Clear 68 20 56 13.3 65 65 SSE 12 19 29.96 1015 10 16 0.00 0.00
1:53 am 01:53 Clear 68 20 57 13.9 68 68 SSE 10 17 29.96 1015 10 16 0.00 0.00
2:53 am 02:53 Clear 67 19.4 59 15 76 76 SSE 8 13 29.96 1014 10 16 0.00 0.00
3:53 am 03:53 Clear 66 18.9 60 15.6 81 81 SSE 8 13 29.94 1014 10 16 0.00 0.00
4:53 am 04:53 Clear 66 18.9 61 16.1 84 84 SE 7 11 29.93 1014 10 16 0.00 0.00
5:53 am 05:53 Clear 67 19.4 62 16.7 84 84 SSE 9 15 29.93 1013 10 16 0.00 0.00
6:53 am 06:53 Clear 66 18.9 63 17.2 90 90 SE 8 13 29.93 1013 10 16 0.00 0.00
7:53 am 07:53 Mostly Sunny 68 20 64 17.8 87 87 SE 9 15 29.92 1013 10 16 0.00 0.00
8:53 am 08:53 Partly Cloudy 72 22.2 65 18.3 79 79 S 8 13 29.91 1013 10 16 0.00 0.00
9:53 am 09:53 Partly Cloudy 77 25 66 18.9 69 69 S 14 22 29.90 1013 10 16 0.00 0.00
10:53 am 10:53 Mostly Cloudy 81 27.2 66 18.9 61 61 S 18 30 29.88 1012 10 16 0.00 0.00
11:53 am 11:53 Mostly Cloudy 85 29.4 64 17.8 50 50 SSW 16 26 29.85 1011 10 16 0.00 0.00
12:53 pm 12:53 Mostly Cloudy 87 30.6 63 17.2 45 45 S 16 26 29.84 1010 10 16 0.00 0.00
1:53 pm 13:53 Mostly Cloudy 88 31.1 62 16.7 42 42 S 20 31 29.82 1010 10 16 0.00 0.00
2:53 pm 14:53 Mostly Cloudy 89 31.7 62 16.7 41 41 S 24 39 29.80 1009 10 16 0.00 0.00
3:53 pm 15:53 Mostly Cloudy 89 31.7 61 16.1 39 39 S 21 33 29.78 1009 10 16 0.00 0.00
4:53 pm 16:53 Mostly Cloudy 89 31.7 61 16.1 39 39 S 20 31 29.77 1008 10 16 0.00 0.00
5:53 pm 17:53 Mostly Cloudy 87 30.6 62 16.7 43 43 S 17 28 29.75 1008 10 16 0.00 0.00
6:53 pm 18:53 Mostly Cloudy 85 29.4 62 16.7 46 46 S 15 24 29.76 1008 10 16 0.00 0.00
7:53 pm 19:53 Mostly Cloudy 82 27.8 62 16.7 51 51 SSE 8 13 29.77 1008 10 16 0.00 0.00
8:53 pm 20:53 Mostly Cloudy 80 26.7 63 17.2 56 56 S 10 17 29.78 1009 10 16 0.00 0.00
9:53 pm 21:53 Mostly Cloudy 80 26.7 62 16.7 54 54 S 13 20 29.78 1009 10 16 0.00 0.00
10:53 pm 22:53 Partly Cloudy 78 25.6 63 17.2 60 60 S 10 17 29.77 1008 10 16 0.00 0.00
11:53 pm 23:53 Partly Cloudy 77 25 63 17.2 62 62 S 13 20 29.77 1008 10 16 0.00 0.00

Powered by AerisWeather